Location: Bonneuil
(46.1010°N, 2.9693°E)
Time: 04:25:28
(UTC+00:00)

Envisat - Visible Passes

Search period start: 26 February 2021 00:00
Search period end: 08 March 2021 00:00
Orbit: 764 x 766 km, 98.1° (Epoch: 25 February)

Date Brightness Start Highest point End Pass type
(mag) Time Alt. Az. Time Alt. Az. Time Alt. Az.
26 Feb 5.0 04:46:55 10° NNE 04:51:25 31° E 04:55:52 10° SSE visible
27 Feb 6.0 04:11:24 10° NE 04:14:12 15° E 04:17:00 10° ESE visible
27 Feb 3.0 05:48:43 10° N 05:53:49 76° WNW 05:58:52 10° SSW visible
28 Feb 3.9 05:11:59 10° NNE 05:16:57 52° E 05:21:53 10° S visible
28 Feb 6.5 18:11:25 10° WSW 18:13:38 13° W 18:15:52 10° WNW visible
01 Mar 5.3 04:35:44 10° NE 04:39:54 25° E 04:44:02 10° SSE visible
02 Mar 6.2 04:00:58 10° ENE 04:02:37 11° E 04:04:17 10° ESE visible
02 Mar 3.1 05:37:16 10° NNE 05:42:24 87° ESE 05:47:29 10° SSW visible
03 Mar 4.4 05:00:40 10° NNE 05:05:28 41° E 05:10:15 10° SSE visible
04 Mar 5.7 04:24:39 10° NE 04:28:21 20° E 04:32:02 10° SE visible
05 Mar 3.4 05:25:52 10° NNE 05:30:57 70° ESE 05:36:01 10° S visible
06 Mar 4.9 04:49:23 10° NNE 04:53:59 33° E 04:58:32 10° SSE visible
07 Mar 6.0 04:13:43 10° NE 04:16:48 16° E 04:19:51 10° SE visible
